User: anonymous   Login
Location: Bailleul
(50.3375°N, 2.8513°E)
Time: 00:28:44
(UTC+00:00)
Language:

BREEZE-M DEB (TANK) - Orbit

View from above orbital plane
View from above orbital plane
View from above satellite
View from above satellite

Ground track
Ground track

The orbit data is extracted from the following two-line orbital elements,

1 39010U 12065C   21263.48907466  .00002661  00000-0  45704-3 0  9993
2 39010  49.6614  86.1109 4669190 124.7719 288.5107  6.17214694196115
Epoch (UTC): 20 September 2021 11:44:16
Eccentricity: 0.4669190
inclination: 49.6614°
perigee height: 314 km
apogee height: 12037 km
right ascension of ascending node: 86.1109°
argument of perigee: 124.7719°
revolutions per day: 6.17214694
mean anomaly at epoch: 288.5107°
orbit number at epoch: 19611

The dashed part of the orbit path shows where the satellite is in the earth's shadow,  

DLR